Location: Staunton
(38.1490°N, 79.0720°W)
Time: 17:46:27
(UTC-04:00)

ISS - Visible Passes

Search period start: 23 September 2017 00:00
Search period end: 03 October 2017 00:00
Orbit: 401 x 407 km, 51.6° (Epoch: 24 September)

Date Brightness Start Highest point End Pass type
(mag) Time Alt. Az. Time Alt. Az. Time Alt. Az.
23 Sep -1.9 20:01:55 10° SSE 20:03:32 14° SE 20:03:32 14° SE visible
24 Sep -3.7 20:44:13 10° SW 20:47:03 62° SSW 20:47:03 62° SSW visible
25 Sep -3.1 19:52:14 10° SSW 19:55:13 34° SE 19:57:36 14° ENE visible
25 Sep -1.0 21:28:57 10° W 21:30:18 19° WNW 21:30:18 19° WNW visible
26 Sep -2.7 20:36:09 10° WSW 20:39:17 43° NW 20:40:37 27° NNE visible
27 Sep -3.8 19:43:39 10° SW 19:46:55 85° NW 19:50:11 10° NE visible
27 Sep -0.9 21:21:48 10° WNW 21:23:25 15° NNW 21:23:25 15° NNW visible
28 Sep -1.5 20:28:36 10° W 20:31:12 22° NNW 20:33:24 12° NNE visible
29 Sep -2.3 19:35:40 10° W 19:38:42 35° NNW 19:41:44 10° NE visible
29 Sep -0.7 21:15:24 10° NNW 21:15:53 10° NNW 21:15:53 10° NNW visible
30 Sep -1.0 20:21:30 10° NW 20:23:14 13° NNW 20:24:58 10° NNE visible
01 Oct -1.4 19:28:10 10° WNW 19:30:36 19° NNW 19:33:01 10° NNE visible
